Tampa Macdill AFB, FL

2:20 AM EST on January 17, 2018 (GMT -0500)
MacDill Air Force Base

Weather History for KMCF - June, 2013

Change the Weather History Date:

Friday, June 28, 2013

  Actual Average Record
Temperature  
Mean Temperature 84 °F -  
Max Temperature 90 °F 88 °F 95 °F (2014)
Min Temperature 78 °F 72 °F 71 °F (1998)
Cooling Degree Days 19    
Growing Degree Days 34 (Base 50)    
Moisture  
Dew Point 77 °F    
Average Humidity 82    
Maximum Humidity 99    
Minimum Humidity 66    
Precipitation  
Precipitation 0.02 in - - ()
Sea Level Pressure  
Sea Level Pressure 29.94 in    
Wind  
Wind Speed 6 mph (SSW)    
Max Wind Speed 18 mph    
Max Gust Speed 21 mph    
Visibility 10 miles    
Events Rain    
Averages and records for this station are not official NWS values.
T = Trace of Precipitation, MM = Missing Value Source: NWS Daily Summary

Daily Weather History Graph

Daily Weather History Graph

Search for Another Location

Airport or City:

Trip Planner

Search our weather history database for the weather conditions in past years. The results will help you decide how hot, cold, wet, or windy it might be!

Date:

Astronomy

Jun. 28, 2013 Rise Set
Actual Time 6:36 AM EDT 8:30 PM EDT
Civil Twilight 6:10 AM EDT 8:56 PM EDT
Nautical Twilight 5:37 AM EDT 9:28 PM EDT
Astronomical Twilight 5:03 AM EDT 10:03 PM EDT
Moon No Moon Rise 12:10 PM EDT (6/28)
Length of Visible Light 14h 46m
Length of Day
13h 53m
Waning Gibbous, 66% of the Moon is Illuminated
Jun 28
Waning Gibbous
Jun 30
Last Quarter
Jul 8
New
Jul 15
First Quarter
Jul 22
Full

Hourly Weather History & Observations

Time (EDT) Temp. Heat Index Dew Point Humidity Pressure Visibility Wind Dir Wind Speed Gust Speed Precip Events Conditions
12:58 AM 81.0 °F 87.7 °F 76.8 °F 87% 30.00 in 10.0 mi WSW 3.5 mph - N/A   Clear
1:58 AM 80.4 °F 86.3 °F 76.3 °F 87% 29.99 in 10.0 mi ESE 2.3 mph - N/A   Partly Cloudy
2:39 AM 80.6 °F 87.1 °F 77.0 °F 89% 29.98 in 10.0 mi SSE 3.5 mph - N/A Rain Light Rain
2:51 AM 78.8 °F - 77.0 °F 94% 29.96 in 10.0 mi SE 5.8 mph - N/A   Partly Cloudy
2:58 AM 79.7 °F - 77.5 °F 93% 29.97 in 10.0 mi South 5.8 mph - 0.00 in   Partly Cloudy
3:58 AM 78.1 °F - 74.7 °F 89% 29.97 in 10.0 mi SW 5.8 mph - N/A   Clear
4:58 AM 78.1 °F - 75.7 °F 92% 29.96 in 10.0 mi South 3.5 mph - N/A   Clear
5:14 AM 78.8 °F - 77.0 °F 94% 29.95 in 10.0 mi SSE 6.9 mph - N/A Rain Light Rain
5:32 AM 78.8 °F - 77.0 °F 94% 29.94 in 9.0 mi SE 5.8 mph - N/A   Partly Cloudy
5:58 AM 78.4 °F - 78.1 °F 99% 29.96 in 10.0 mi South 4.6 mph - 0.02 in   Clear
6:58 AM 78.1 °F - 77.7 °F 99% 29.97 in 10.0 mi SE 2.3 mph - N/A   Clear
7:26 AM 80.6 °F 88.1 °F 78.8 °F 94% 29.97 in 8.0 mi South 4.6 mph - N/A Rain Light Rain
7:38 AM 80.6 °F 88.1 °F 78.8 °F 94% 29.97 in 7.0 mi SSE 5.8 mph - N/A   Scattered Clouds
7:58 AM 79.0 °F - 76.5 °F 92% 29.98 in 10.0 mi SSW 4.6 mph - 0.00 in   Partly Cloudy
8:58 AM 82.2 °F 91.6 °F 78.4 °F 88% 29.98 in 10.0 mi South 6.9 mph - N/A   Clear
9:58 AM 85.3 °F 98.1 °F 79.0 °F 81% 29.97 in 10.0 mi SSW 8.1 mph - N/A   Scattered Clouds
10:58 AM 87.3 °F 99.3 °F 77.4 °F 72% 29.96 in 10.0 mi SW 11.5 mph - N/A   Scattered Clouds
11:58 AM 89.2 °F 105.6 °F 79.5 °F 73% 29.96 in 10.0 mi SSW 15.0 mph - N/A   Clear
12:58 PM 90.1 °F 105.0 °F 78.1 °F 68% 29.95 in 10.0 mi SW 12.7 mph - N/A   Partly Cloudy
1:32 PM 89.6 °F 104.7 °F 78.8 °F 70% 29.94 in 10.0 mi SW 12.7 mph - N/A Rain Light Rain
1:41 PM 87.8 °F 102.5 °F 78.8 °F 75% 29.94 in 10.0 mi WSW 10.4 mph - N/A   Mostly Cloudy
1:58 PM 88.9 °F 102.7 °F 78.1 °F 70% 29.94 in 10.0 mi SW 13.8 mph 18.4 mph 0.00 in   Mostly Cloudy
2:58 PM 89.2 °F 103.7 °F 78.3 °F 70% 29.92 in 10.0 mi WSW 12.7 mph - N/A   Partly Cloudy
3:06 PM 87.8 °F 97.6 °F 75.2 °F 66% 29.90 in 10.0 mi SW 18.4 mph 20.7 mph N/A Rain Light Rain
3:20 PM 84.2 °F 96.1 °F 78.8 °F 84% 29.90 in 10.0 mi SW 8.1 mph - N/A   Scattered Clouds
3:58 PM 88.7 °F 101.6 °F 77.5 °F 69% 29.90 in 10.0 mi West 10.4 mph 17.3 mph 0.00 in   Partly Cloudy
4:58 PM 89.4 °F 102.3 °F 77.4 °F 67% 29.89 in 10.0 mi WSW 9.2 mph - N/A   Partly Cloudy
5:58 PM 89.6 °F 102.2 °F 76.8 °F 66% 29.88 in 10.0 mi WSW 9.2 mph - N/A   Clear
6:58 PM 86.7 °F 97.3 °F 76.5 °F 71% 29.89 in 10.0 mi WSW 8.1 mph - N/A   Clear
7:58 PM 84.2 °F 94.1 °F 77.2 °F 79% 29.89 in 10.0 mi SW 6.9 mph - N/A   Partly Cloudy
8:58 PM 82.8 °F 91.0 °F 76.3 °F 81% 29.90 in 10.0 mi WSW 4.6 mph - N/A   Scattered Clouds
9:58 PM 82.4 °F 89.8 °F 75.6 °F 80% 29.91 in 10.0 mi WSW 5.8 mph - N/A   Mostly Cloudy
10:58 PM 81.7 °F 89.0 °F 76.5 °F 84% 29.91 in 10.0 mi SW 6.9 mph - N/A   Clear
11:58 PM 81.3 °F 88.3 °F 76.5 °F 85% 29.90 in 10.0 mi SW 8.1 mph - N/A   Partly Cloudy